DW4707 Campi Bisenzio - Firenze IT current weather conditions

sailwx.info

Last reported at 2014-Dec-07 14:16 UTC.
Time now 2015-Mar-05 14:37 UTC

Location: N 43°50' E 011°08'.
View on Google Maps.

See reports from other nearby stations

  
Tides and Currents Weather Stations Pressure Air Temp Water Temp Dewpoint Dewpoint Depression Visibility Wind Speed Wind Dir Waves Ship Positions
date/time (UTC)wind fromknots sea level pressurealtimeterstation pressurevisibilityair tempwater tempwave heightnotes
2015-Mar-05 13:46 068 1 gusting 5 11.1
2015-Mar-05 13:36 035 11.1
2015-Mar-05 13:26 045 2 gusting 6 11.1
2015-Mar-05 13:16 063 4 gusting 6 11.1
2015-Mar-05 13:06 022 1 gusting 2 11.1
2015-Mar-05 12:56 350 0 gusting 5 11.1
2015-Mar-05 12:46 022 2 gusting 5 10.6
2015-Mar-05 12:36 014 4 gusting 5 11.1
2015-Mar-05 12:26 158 11.1
2015-Mar-05 12:16 060 1 gusting 10 11.1
2015-Mar-05 12:06 133 2 gusting 6 10.6
2015-Mar-05 11:56 022 6 gusting 8 10.6
2015-Mar-05 11:46 045 0 gusting 14 10.6
2015-Mar-05 11:36 10.6
2015-Mar-05 11:26 135 11.1
2015-Mar-05 11:16 061 4 gusting 6 10.6
2015-Mar-05 11:06 085 3 gusting 5 10.6
2015-Mar-05 10:56 225 1 gusting 6 10.6
2015-Mar-05 10:46 320 5 gusting 5 10.0
2015-Mar-05 10:36 348 6 gusting 8 10.0
2015-Mar-05 10:26 022 0 gusting 12 10.0
2015-Mar-05 10:16 068 8 gusting 10 10.0
2015-Mar-05 10:06 202 1 gusting 15 10.0
2015-Mar-05 09:56 10.0
2015-Mar-05 09:46 10.0
2015-Mar-05 09:36 022 10 gusting 10 9.4
2015-Mar-05 09:26 022 4 gusting 11 9.4
2015-Mar-05 09:16 225 1 gusting 2 9.4
2015-Mar-05 09:06 011 4 gusting 15 9.4
2015-Mar-05 08:56 036 5 gusting 12 9.4
2015-Mar-05 08:46 068 11 gusting 13 9.4
2015-Mar-05 08:36 074 11 gusting 12 9.4
2015-Mar-05 08:26 022 6 gusting 11 9.4
2015-Mar-05 08:16 022 6 gusting 6 9.4
2015-Mar-05 08:06 045 6 gusting 6 9.4
2015-Mar-05 07:56 292 6 gusting 12 9.4
2015-Mar-05 07:46 024 11 gusting 12 9.4
2015-Mar-05 07:36 008 6 gusting 13 9.4
2015-Mar-05 07:26 022 4 gusting 13 9.4
2015-Mar-05 07:16 9.4
2015-Mar-05 07:06 022 12 gusting 15 9.4
2015-Mar-05 06:56 022 8 gusting 11 9.4
2015-Mar-05 06:46 9.4
2015-Mar-05 06:36 016 6 gusting 13 9.4
2015-Mar-05 06:26 068 6 gusting 14 8.9
2015-Mar-05 06:16 225 6 gusting 20 8.9
2015-Mar-05 06:06 270 13 gusting 17 8.9
2015-Mar-05 05:56 022 8 gusting 14 8.9
2015-Mar-05 05:46 338 13 gusting 14 8.9
2015-Mar-05 05:36 248 10 gusting 10 8.9
2015-Mar-05 05:26 045 2 gusting 7 8.3
2015-Mar-05 05:16 8.3
2015-Mar-05 05:06 343 2 gusting 14 7.8
2015-Mar-05 04:56 022 12 gusting 14 7.8
2015-Mar-05 04:46 346 6 gusting 11 7.8
2015-Mar-05 04:36 068 8 gusting 10 7.2
2015-Mar-05 04:26 7.2
2015-Mar-05 04:16 7.2
2015-Mar-05 04:06 022 6 gusting 12 7.2
2015-Mar-05 03:56 045 0 gusting 4 6.7
2015-Mar-05 03:46 082 2 gusting 11 6.7
2015-Mar-05 03:36 158 1 gusting 8 6.7
2015-Mar-05 03:26 022 3 gusting 4 6.7
2015-Mar-05 03:16 022 8 gusting 17 6.1
2015-Mar-05 03:06 063 6 gusting 6 6.1
2015-Mar-05 02:56 158 5 gusting 6 6.1
2015-Mar-05 02:46 320 2 gusting 6 6.1
2015-Mar-05 02:36 358 3 gusting 10 6.1
2015-Mar-05 02:26 6.1
2015-Mar-05 02:16 338 4 gusting 11 6.1
2015-Mar-05 02:06 6.1
2015-Mar-05 01:56 068 6.1
2015-Mar-05 01:46 068 2 gusting 4 6.1
2015-Mar-05 01:36 354 1 gusting 6 6.1
2015-Mar-05 01:26 6.7
2015-Mar-05 01:16 054 6.7
2015-Mar-05 01:06 215 0 gusting 5 6.7
2015-Mar-05 00:56 6.7
2015-Mar-05 00:46 202 0 gusting 4 6.7
2015-Mar-05 00:36 005 5 gusting 12 6.7
2015-Mar-05 00:26 045 2 gusting 2 7.2
2015-Mar-05 00:16 044 1 gusting 13 7.2
2015-Mar-05 00:06 041 0 gusting 5 7.8
2015-Mar-04 23:56 045 2 gusting 5 7.8
2015-Mar-04 23:46 060 5 gusting 7 7.8
2015-Mar-04 23:36 056 4 gusting 4 7.8
2015-Mar-04 23:26 045 8.3
2015-Mar-04 23:16 001 1 gusting 6 8.3
2015-Mar-04 23:06 026 3 gusting 6 8.3
2015-Mar-04 22:56 270 8.3
2015-Mar-04 22:46 8.3
2015-Mar-04 22:36 357 8.3
2015-Mar-04 22:26 8.3
2015-Mar-04 22:16 321 0 gusting 1 8.3
2015-Mar-04 22:06 022 5 gusting 6 8.3
2015-Mar-04 21:56 045 0 gusting 7 8.3
2015-Mar-04 21:46 009 1 gusting 4 8.3
2015-Mar-04 21:36 018 1 gusting 2 8.9
2015-Mar-04 21:26 045 8.9
2015-Mar-04 21:16 022 2 gusting 4 8.9
2015-Mar-04 21:06 8.9
2015-Mar-04 20:56 090 8.9
2015-Mar-04 20:46 022 8.9
2015-Mar-04 20:36 018 8.9
2015-Mar-04 20:26 225 8.9
2015-Mar-04 20:16 023 9.4
2015-Mar-04 20:06 049 9.4
2015-Mar-04 19:56 068 9.4
2015-Mar-04 19:46 087 9.4
2015-Mar-04 19:36 050 9.4
2015-Mar-04 19:26 068 9.4
2015-Mar-04 19:16 006 9.4
2015-Mar-04 19:06 045 10.0
2015-Mar-04 18:56 338 10.0
2015-Mar-04 18:46 032 10.0
2015-Mar-04 18:36 181 10.0
2015-Mar-04 18:26 10.0
2015-Mar-04 18:16 057 10.6
2015-Mar-04 18:06 045 10.6
2015-Mar-04 17:56 180 10.6
2015-Mar-04 17:46 022 0 gusting 0 10.6
2015-Mar-04 17:36 158 10.6
2015-Mar-04 17:26 045 10.6
2015-Mar-04 17:16 022 11.1
2015-Mar-04 17:06 022 11.1
2015-Mar-04 16:56 158 11.1
2015-Mar-04 16:46 088 11.1
2015-Mar-04 16:36 11.1
2015-Mar-04 16:26 022 0 gusting 0 11.1
2015-Mar-04 16:16 040 11.1
2015-Mar-04 16:06 022 11.1
2015-Mar-04 15:56 045 0 gusting 0 11.1
2015-Mar-04 15:46 051 11.1
2015-Mar-04 15:36 270 11.1
2015-Mar-04 15:26 022 11.7
2015-Mar-04 15:16 11.7
2015-Mar-04 15:06 225 11.7
2015-Mar-04 14:56 138 11.7
2015-Mar-04 14:46 022 11.7
2015-Mar-04 14:36 338 11.7
2015-Mar-04 14:26 338 12.2
2015-Mar-04 14:16 346 12.2
2015-Mar-04 14:06 338 12.2
2015-Mar-04 13:56 292 12.2
2015-Mar-04 13:46 180 12.2
2015-Mar-04 13:36 135 12.2
2015-Mar-04 13:26 045 12.2
2015-Mar-04 13:16 002 12.2
2015-Mar-04 13:06 12.2
2015-Mar-04 12:56 045 12.2
2015-Mar-04 12:46 025 12.2
2015-Mar-04 12:36 12.2
2015-Mar-04 12:26 315 12.2
2015-Mar-04 12:16 270 12.2
2015-Mar-04 12:06 270 12.2
2015-Mar-04 11:56 022 12.2
2015-Mar-04 11:46 022 12.2
2015-Mar-04 11:36 045 12.2
2015-Mar-04 11:26 022 12.2
2015-Mar-04 11:16 045 12.2
2015-Mar-04 11:06 045 12.2
2015-Mar-04 10:56 202 11.7
2015-Mar-04 10:46 034 11.7
2015-Mar-04 10:36 130 11.7
2015-Mar-04 10:26 068 11.7
2015-Mar-04 10:16 022 11.7
2015-Mar-04 10:06 338 11.7
2015-Mar-04 09:56 11.7
2015-Mar-04 09:46 147 11.7
2015-Mar-04 09:36 068 11.7
2015-Mar-04 09:26 022 11.7
2015-Mar-04 09:16 030 11.1
2015-Mar-04 09:06 068 11.1
2015-Mar-04 08:56 135 11.1
2015-Mar-04 08:46 094 11.1
2015-Mar-04 08:36 045 11.1
2015-Mar-04 08:26 031 10.6
2015-Mar-04 08:16 045 10.6
2015-Mar-04 08:06 045 10.6
2015-Mar-04 07:56 068 10.6
2015-Mar-04 07:46 068 10.6
2015-Mar-04 07:36 068 10.6
2015-Mar-04 07:26 10.6
2015-Mar-04 07:16 10.6
2015-Mar-04 07:06 353 10.0
2015-Mar-04 06:56 10.0
2015-Mar-04 06:46 10.0
2015-Mar-04 06:36 090 9.4
2015-Mar-04 06:26 202 9.4
2015-Mar-04 06:16 022 9.4
2015-Mar-04 06:06 9.4
2015-Mar-04 05:56 9.4
2015-Mar-04 05:46 338 9.4
2015-Mar-04 05:36 180 9.4
2015-Mar-04 05:26 292 9.4
2015-Mar-04 05:16 202 9.4
2015-Mar-04 05:06 225 9.4
2015-Mar-04 04:56 090 9.4
2015-Mar-04 04:46 022 9.4
2015-Mar-04 04:36 045 9.4
2015-Mar-04 04:26 9.4
2015-Mar-04 04:16 045 9.4
2015-Mar-04 04:06 9.4
2015-Mar-04 03:56 180 9.4
2015-Mar-04 03:46 315 9.4
2015-Mar-04 03:36 338 9.4
2015-Mar-04 03:26 225 10.0
2015-Mar-04 03:16 248 10.0
2015-Mar-04 03:06 270 10.0
2015-Mar-04 02:56 270 10.6
2015-Mar-04 02:46 266 10.6
2015-Mar-04 02:36 292 10.6
2015-Mar-04 02:26 068 10.6
2015-Mar-04 02:16 289 10.6
2015-Mar-04 02:06 10.6
2015-Mar-04 01:56 10.6
2015-Mar-04 01:46 022 10.6
2015-Mar-04 01:36 025 10.6
2015-Mar-04 01:26 202 10.6
2015-Mar-04 01:16 050 10.6
2015-Mar-04 01:06 118 10.6
2015-Mar-04 00:56 202 10.6
2015-Mar-04 00:46 248 10.6
2015-Mar-04 00:36 180 10.6
2015-Mar-04 00:26 135 10.6
2015-Mar-04 00:16 10.6
2015-Mar-04 00:06 020 10.6
2015-Mar-03 23:56 11.1
2015-Mar-03 23:46 002 10.6
2015-Mar-03 23:36 022 10.6
2015-Mar-03 23:26 158 10.6
2015-Mar-03 23:16 024 10.6
2015-Mar-03 23:06 184 10.6
2015-Mar-03 22:56 202 10.6
2015-Mar-03 22:46 060 10.6
2015-Mar-03 22:36 303 10.6
2015-Mar-03 22:26 338 10.6
2015-Mar-03 22:16 005 10.6
2015-Mar-03 22:06 354 11.1
2015-Mar-03 21:56 338 10.6
2015-Mar-03 21:46 338 10.6
2015-Mar-03 21:36 338 10.6
2015-Mar-03 21:26 338 10.6
2015-Mar-03 21:16 068 11.1
2015-Mar-03 21:06 112 11.1
2015-Mar-03 20:56 068 11.1
2015-Mar-03 20:46 225 11.1
2015-Mar-03 20:36 029 11.1
2015-Mar-03 20:26 225 11.7
2015-Mar-03 20:16 223 11.7
2015-Mar-03 20:06 202 11.7
2015-Mar-03 19:56 315 11.7
2015-Mar-03 19:46 202 12.2
2015-Mar-03 19:36 242 12.2
2015-Mar-03 19:26 180 12.2
2015-Mar-03 19:16 155 12.2
2015-Mar-03 19:06 251 12.8
2015-Mar-03 18:56 315 12.8
2015-Mar-03 18:46 125 12.8
2015-Mar-03 18:36 079 12.8
2015-Mar-03 18:26 068 13.3
2015-Mar-03 18:16 024 13.3
2015-Mar-03 18:06 022 13.3
2015-Mar-03 17:56 022 13.3
2015-Mar-03 17:46 022 13.9
2015-Mar-03 17:36 022 13.9
2015-Mar-03 17:26 045 14.4
2015-Mar-03 17:16 060 14.4
2015-Mar-03 17:06 022 15.0
2015-Mar-03 16:56 045 15.0
2015-Mar-03 16:46 022 15.6
2015-Mar-03 16:36 022 15.6
2015-Mar-03 16:26 292 16.1
2015-Mar-03 16:16 022 16.7
2015-Mar-03 16:06 022 16.7
2015-Mar-03 15:56 022 16.7
2015-Mar-03 15:46 020 16.7
2015-Mar-03 15:36 038 16.7
2015-Mar-03 15:26 112 17.2
2015-Mar-03 15:16 022 17.2
2015-Mar-03 15:06 17.8
2015-Mar-03 14:56 17.8
2015-Mar-03 14:46 17.8
2015-Mar-03 14:36 014 17.8
2015-Mar-03 14:26 17.8
2015-Mar-03 14:16 17.8
2015-Mar-03 14:06 051 17.8